| time (UTC) | temp F | wind direction | speed MPH | gust MPH | rain 1hr in | rain 24hr in | rain mn in | humidity % | barometer mb |
| 20260905160718 | 69 | 293 | 10.0 | 17.0 | 0.00 | 0.02 | 0.02 | 49 | 1019.8 |
| 20260905160003 | 70 | 285 | 10.0 | 18.0 | 0.00 | 0.02 | 0.02 | 49 | 1019.7 |
| 20260905155503 | 70 | 286 | 10.0 | 20.0 | 0.00 | 0.02 | 0.02 | 49 | 1019.6 |
| 20260905155003 | 70 | 291 | 8.0 | 20.0 | 0.00 | 0.02 | 0.02 | 50 | 1019.6 |
| 20260905154503 | 70 | 291 | 7.0 | 14.0 | 0.00 | 0.02 | 0.02 | 50 | 1019.6 |
| 20260905154003 | 70 | 291 | 7.0 | 15.0 | 0.00 | 0.02 | 0.02 | 50 | 1019.5 |
| 20260905153503 | 70 | 295 | 9.0 | 17.0 | 0.00 | 0.02 | 0.02 | 50 | 1019.5 |
| 20260905153003 | 70 | 294 | 8.0 | 17.0 | 0.00 | 0.02 | 0.02 | 51 | 1019.5 |
| 20260905152718 | 70 | 294 | 7.0 | 17.0 | 0.00 | 0.02 | 0.02 | 51 | 1019.5 |
| 20260905152003 | 70 | 290 | 7.0 | 13.0 | 0.00 | 0.02 | 0.02 | 53 | 1019.4 |
| 20260905151503 | 70 | 290 | 8.0 | 14.0 | 0.00 | 0.02 | 0.02 | 53 | 1019.4 |
| 20260905151003 | 70 | 297 | 7.0 | 14.0 | 0.00 | 0.02 | 0.02 | 54 | 1019.5 |
| 20260905150503 | 70 | 301 | 6.0 | 12.0 | 0.00 | 0.02 | 0.02 | 53 | 1019.5 |
| 20260905150003 | 70 | 306 | 7.0 | 14.0 | 0.00 | 0.02 | 0.02 | 53 | 1019.5 |
| 20260905145716 | 70 | 299 | 8.0 | 15.0 | 0.00 | 0.02 | 0.02 | 52 | 1019.4 |
| 20260905145003 | 69 | 291 | 8.0 | 15.0 | 0.00 | 0.02 | 0.02 | 53 | 1019.3 |
| 20260905144503 | 69 | 296 | 7.0 | 13.0 | 0.00 | 0.02 | 0.02 | 53 | 1019.5 |
| 20260905144003 | 69 | 302 | 7.0 | 13.0 | 0.00 | 0.02 | 0.02 | 53 | 1019.5 |
| 20260905143503 | 69 | 310 | 7.0 | 13.0 | 0.00 | 0.02 | 0.02 | 53 | 1019.4 |
| 20260905143003 | 69 | 307 | 8.0 | 14.0 | 0.00 | 0.02 | 0.02 | 52 | 1019.4 |
| 20260905142503 | 69 | 301 | 10.0 | 20.0 | 0.00 | 0.02 | 0.02 | 51 | 1019.5 |
| 20260905142003 | 70 | 300 | 10.0 | 20.0 | 0.00 | 0.02 | 0.02 | 49 | 1019.5 |
| 20260905141503 | 70 | 294 | 9.0 | 19.0 | 0.00 | 0.02 | 0.02 | 49 | 1019.5 |
| 20260905141003 | 69 | 286 | 11.0 | 18.0 | 0.00 | 0.02 | 0.02 | 49 | 1019.6 |
| 20260905140718 | 69 | 287 | 11.0 | 18.0 | 0.00 | 0.02 | 0.02 | 48 | 1019.6 |
| 20260905140003 | 69 | 288 | 9.0 | 17.0 | 0.00 | 0.02 | 0.02 | 48 | 1019.7 |
| 20260905135503 | 69 | 280 | 9.0 | 16.0 | 0.00 | 0.02 | 0.02 | 49 | 1019.5 |
| 20260905135003 | 69 | 276 | 8.0 | 16.0 | 0.00 | 0.02 | 0.02 | 48 | 1019.6 |
| 20260905134503 | 69 | 281 | 7.0 | 14.0 | 0.00 | 0.02 | 0.02 | 49 | 1019.6 |
| 20260905134218 | 69 | 281 | 8.0 | 14.0 | 0.00 | 0.02 | 0.02 | 49 | 1019.7 |
| 20260905133503 | 69 | 277 | 10.0 | 19.0 | 0.00 | 0.02 | 0.02 | 49 | 1019.8 |
| 20260905133003 | 70 | 279 | 10.0 | 17.0 | 0.00 | 0.02 | 0.02 | 49 | 1019.8 |
| 20260905132503 | 70 | 280 | 10.0 | 18.0 | 0.00 | 0.02 | 0.02 | 50 | 1019.8 |
| 20260905132003 | 70 | 283 | 10.0 | 19.0 | 0.00 | 0.02 | 0.02 | 50 | 1019.8 |
| 20260905131503 | 70 | 293 | 11.0 | 19.0 | 0.00 | 0.02 | 0.02 | 50 | 1019.8 |
| 20260905131003 | 70 | 301 | 10.0 | 19.0 | 0.00 | 0.02 | 0.02 | 50 | 1019.9 |
| 20260905130503 | 70 | 298 | 12.0 | 22.0 | 0.00 | 0.02 | 0.02 | 51 | 1019.8 |
| 20260905130003 | 69 | 294 | 11.0 | 22.0 | 0.00 | 0.02 | 0.02 | 51 | 1019.9 |
| 20260905125503 | 70 | 298 | 10.0 | 21.0 | 0.00 | 0.02 | 0.02 | 50 | 1019.9 |
| 20260905125007 | 70 | 297 | 11.0 | 22.0 | 0.00 | 0.02 | 0.02 | 50 | 1019.9 |
| 20260905124503 | 69 | 297 | 12.0 | 22.0 | 0.00 | 0.02 | 0.02 | 50 | 1019.8 |
| 20260905124003 | 69 | 294 | 11.0 | 16.0 | 0.00 | 0.02 | 0.02 | 49 | 1019.8 |
| 20260905123503 | 69 | 294 | 11.0 | 21.0 | 0.00 | 0.02 | 0.02 | 50 | 1019.8 |
| 20260905123003 | 69 | 288 | 12.0 | 24.0 | 0.00 | 0.02 | 0.02 | 50 | 1019.9 |
| 20260905122503 | 69 | 281 | 12.0 | 24.0 | 0.00 | 0.02 | 0.02 | 49 | 1019.9 |
| 20260905122003 | 69 | 285 | 12.0 | 21.0 | 0.00 | 0.02 | 0.02 | 51 | 1020.0 |
| 20260905121503 | 69 | 295 | 12.0 | 20.0 | 0.00 | 0.02 | 0.02 | 53 | 1020.0 |
| 20260905121003 | 69 | 292 | 13.0 | 21.0 | 0.00 | 0.02 | 0.02 | 55 | 1020.1 |
| 20260905120503 | 69 | 279 | 12.0 | 21.0 | 0.00 | 0.02 | 0.02 | 54 | 1020.1 |
| 20260905120003 | 70 | 277 | 11.0 | 21.0 | 0.00 | 0.02 | 0.02 | 50 | 1020.0 |
| 20260905115503 | 69 | 281 | 12.0 | 21.0 | 0.00 | 0.02 | 0.02 | 52 | 1019.9 |
| 20260905115003 | 69 | 287 | 12.0 | 21.0 | 0.00 | 0.02 | 0.02 | 51 | 1020.0 |
| 20260905114717 | 68 | 290 | 11.0 | 21.0 | 0.00 | 0.02 | 0.02 | 52 | 1020.0 |
| 20260905114003 | 69 | 289 | 12.0 | 23.0 | 0.00 | 0.02 | 0.02 | 57 | 1019.9 |
| 20260905113503 | 69 | 282 | 11.0 | 19.0 | 0.00 | 0.02 | 0.02 | 54 | 1019.9 |
| 20260905113004 | 69 | 280 | 10.0 | 19.0 | 0.00 | 0.02 | 0.02 | 54 | 1019.9 |
| 20260905112503 | 69 | 292 | 9.0 | 19.0 | 0.00 | 0.02 | 0.02 | 53 | 1020.0 |
| 20260905112003 | 69 | 287 | 11.0 | 19.0 | 0.00 | 0.02 | 0.02 | 53 | 1020.0 |
| 20260905111503 | 69 | 273 | 12.0 | 23.0 | 0.00 | 0.02 | 0.02 | 57 | 1019.9 |
| 20260905111003 | 69 | 272 | 12.0 | 23.0 | 0.00 | 0.02 | 0.02 | 55 | 1019.9 |
| 20260905110503 | 69 | 274 | 11.0 | 20.0 | 0.00 | 0.02 | 0.02 | 55 | 1019.8 |
| 20260905110003 | 69 | 279 | 11.0 | 19.0 | 0.00 | 0.02 | 0.02 | 55 | 1019.9 |
| 20260905105503 | 68 | 287 | 12.0 | 21.0 | 0.00 | 0.02 | 0.02 | 59 | 1019.8 |
| 20260905105003 | 68 | 283 | 11.0 | 21.0 | 0.00 | 0.02 | 0.02 | 59 | 1019.9 |
| 20260905104503 | 68 | 274 | 9.0 | 18.0 | 0.00 | 0.02 | 0.02 | 59 | 1019.8 |
| 20260905104003 | 67 | 272 | 8.0 | 18.0 | 0.00 | 0.02 | 0.02 | 59 | 1019.8 |
| 20260905103503 | 67 | 280 | 7.0 | 14.0 | 0.00 | 0.02 | 0.02 | 61 | 1019.9 |
| 20260905103003 | 66 | 272 | 7.0 | 14.0 | 0.00 | 0.02 | 0.02 | 61 | 1020.1 |
| 20260905102503 | 66 | 261 | 7.0 | 15.0 | 0.00 | 0.02 | 0.02 | 63 | 1020.0 |
| 20260905102003 | 66 | 270 | 8.0 | 16.0 | 0.00 | 0.02 | 0.02 | 62 | 1019.9 |
| 20260905101503 | 66 | 279 | 9.0 | 16.0 | 0.00 | 0.02 | 0.02 | 60 | 1019.9 |
| 20260905101003 | 66 | 289 | 8.0 | 15.0 | 0.00 | 0.02 | 0.02 | 64 | 1019.9 |
| 20260905100716 | 66 | 292 | 7.0 | 15.0 | 0.00 | 0.02 | 0.02 | 63 | 1020.0 |
| 20260905100003 | 65 | 313 | 6.0 | 13.0 | 0.00 | 0.02 | 0.02 | 68 | 1020.0 |
| 20260905095503 | 66 | 306 | 7.0 | 13.0 | 0.00 | 0.02 | 0.02 | 67 | 1020.1 |
| 20260905095219 | 66 | 293 | 8.0 | 14.0 | 0.00 | 0.02 | 0.02 | 67 | 1020.1 |
| 20260905094504 | 66 | 286 | 9.0 | 17.0 | 0.00 | 0.02 | 0.02 | 65 | 1020.1 |
| 20260905094003 | 65 | 287 | 9.0 | 17.0 | 0.00 | 0.02 | 0.02 | 67 | 1020.3 |
| 20260905093503 | 65 | 289 | 8.0 | 16.0 | 0.00 | 0.02 | 0.02 | 67 | 1020.4 |
| 20260905093219 | 65 | 291 | 7.0 | 15.0 | 0.00 | 0.02 | 0.02 | 69 | 1020.3 |
| 20260905092503 | 64 | 289 | 6.0 | 15.0 | 0.00 | 0.02 | 0.02 | 69 | 1020.3 |
| 20260905092003 | 64 | 306 | 6.0 | 15.0 | 0.00 | 0.02 | 0.02 | 70 | 1020.3 |
| 20260905091718 | 64 | 303 | 7.0 | 11.0 | 0.00 | 0.02 | 0.02 | 70 | 1020.3 |
| 20260905091003 | 64 | 301 | 7.0 | 13.0 | 0.00 | 0.02 | 0.02 | 71 | 1020.2 |
| 20260905090503 | 64 | 312 | 5.0 | 13.0 | 0.00 | 0.02 | 0.02 | 72 | 1020.2 |
| 20260905090003 | 63 | 313 | 5.0 | 11.0 | 0.00 | 0.02 | 0.02 | 72 | 1020.1 |
| 20260905085503 | 63 | 303 | 6.0 | 11.0 | 0.00 | 0.02 | 0.02 | 72 | 1019.9 |
| 20260905085219 | 63 | 300 | 7.0 | 13.0 | 0.00 | 0.02 | 0.02 | 72 | 1019.9 |
| 20260905084504 | 63 | 309 | 8.0 | 13.0 | 0.00 | 0.02 | 0.02 | 72 | 1019.9 |
| 20260905084003 | 63 | 302 | 8.0 | 13.0 | 0.00 | 0.02 | 0.02 | 72 | 1019.9 |
| 20260905083503 | 63 | 303 | 8.0 | 13.0 | 0.00 | 0.02 | 0.02 | 72 | 1019.9 |
| 20260905083003 | 62 | 302 | 8.0 | 13.0 | 0.00 | 0.02 | 0.02 | 72 | 1020.1 |
| 20260905082503 | 62 | 295 | 8.0 | 13.0 | 0.00 | 0.02 | 0.02 | 73 | 1019.9 |
| 20260905082003 | 63 | 295 | 7.0 | 13.0 | 0.00 | 0.02 | 0.02 | 72 | 1020.0 |
| 20260905081503 | 63 | 288 | 7.0 | 15.0 | 0.00 | 0.02 | 0.02 | 73 | 1020.0 |
| 20260905081003 | 62 | 274 | 6.0 | 15.0 | 0.00 | 0.02 | 0.02 | 73 | 1019.8 |
| 20260905080503 | 62 | 273 | 5.0 | 10.0 | 0.00 | 0.02 | 0.02 | 74 | 1019.8 |
| 20260905080003 | 61 | 286 | 4.0 | 10.0 | 0.00 | 0.02 | 0.02 | 74 | 1019.7 |
| 20260905075503 | 61 | 303 | 3.0 | 10.0 | 0.00 | 0.02 | 0.02 | 74 | 1019.6 |
| 20260905075003 | 61 | 309 | 2.0 | 7.0 | 0.00 | 0.02 | 0.02 | 74 | 1019.5 |
| 20260905074503 | 61 | 310 | 1.0 | 4.0 | 0.00 | 0.02 | 0.02 | 74 | 1019.6 |
| 20260905074216 | 60 | 0 | 0.0 | 0.0 | 0.00 | 0.02 | 0.02 | 74 | 1019.6 |
| 20260905073503 | 60 | 310 | 1.0 | 5.0 | 0.00 | 0.02 | 0.02 | 74 | 1019.6 |
| 20260905073004 | 60 | 310 | 1.0 | 4.0 | 0.00 | 0.02 | 0.02 | 73 | 1019.5 |
| 20260905072719 | 60 | 311 | 0.0 | 4.0 | 0.00 | 0.02 | 0.02 | 73 | 1019.5 |
| 20260905072003 | 59 | 0 | 0.0 | 0.0 | 0.00 | 0.02 | 0.02 | 72 | 1019.5 |
| 20260905071503 | 59 | 0 | 0.0 | 0.0 | 0.00 | 0.02 | 0.02 | 72 | 1019.6 |
| 20260905071003 | 59 | 0 | 0.0 | 0.0 | 0.00 | 0.02 | 0.02 | 70 | 1019.5 |
| 20260905070503 | 58 | 0 | 0.0 | 0.0 | 0.00 | 0.02 | 0.02 | 70 | 1019.4 |
| 20260905070003 | 58 | 345 | 1.0 | 2.0 | 0.00 | 0.02 | 0.02 | 70 | 1019.3 |
| 20260905065503 | 58 | 331 | 2.0 | 6.0 | 0.00 | 0.02 | 0.02 | 70 | 1019.4 |
| 20260905065003 | 58 | 325 | 2.0 | 6.0 | 0.00 | 0.02 | 0.02 | 70 | 1019.5 |
| 20260905064719 | 58 | 325 | 2.0 | 4.0 | 0.00 | 0.02 | 0.02 | 69 | 1019.5 |
| 20260905064003 | 58 | 339 | 0.0 | 4.0 | 0.00 | 0.02 | 0.02 | 69 | 1019.6 |
| 20260905063503 | 58 | 29 | 0.0 | 3.0 | 0.00 | 0.02 | 0.02 | 69 | 1019.6 |
| 20260905063003 | 58 | 336 | 1.0 | 3.0 | 0.00 | 0.02 | 0.02 | 68 | 1019.3 |
| 20260905062503 | 58 | 335 | 2.0 | 7.0 | 0.00 | 0.02 | 0.02 | 68 | 1019.3 |
| 20260905062003 | 58 | 2 | 3.0 | 7.0 | 0.00 | 0.02 | 0.02 | 69 | 1019.2 |
| 20260905061503 | 58 | 12 | 3.0 | 7.0 | 0.00 | 0.02 | 0.02 | 68 | 1019.0 |
| 20260905061218 | 58 | 6 | 3.0 | 7.0 | 0.01 | 0.02 | 0.02 | 68 | 1018.9 |
| 20260905060503 | 58 | 346 | 3.0 | 6.0 | 0.01 | 0.02 | 0.02 | 68 | 1019.1 |
| 20260905060003 | 58 | 346 | 4.0 | 11.0 | 0.01 | 0.02 | 0.02 | 69 | 1019.0 |
| 20260905055503 | 58 | 340 | 6.0 | 11.0 | 0.02 | 0.02 | 0.02 | 69 | 1019.1 |
| 20260905055003 | 58 | 326 | 5.0 | 11.0 | 0.02 | 0.02 | 0.02 | 71 | 1018.8 |
| 20260905054718 | 58 | 311 | 5.0 | 11.0 | 0.02 | 0.02 | 0.02 | 72 | 1018.3 |
| 20260905054003 | 59 | 299 | 4.0 | 13.0 | 0.02 | 0.02 | 0.02 | 71 | 1017.7 |
| 20260905053507 | 59 | 297 | 4.0 | 13.0 | 0.02 | 0.02 | 0.02 | 70 | 1017.8 |
| 20260905053003 | 59 | 295 | 6.0 | 15.0 | 0.02 | 0.02 | 0.02 | 70 | 1017.7 |
| 20260905052503 | 59 | 292 | 7.0 | 15.0 | 0.02 | 0.02 | 0.02 | 70 | 1018.2 |
| 20260905052003 | 60 | 293 | 6.0 | 14.0 | 0.02 | 0.02 | 0.02 | 70 | 1018.1 |
| 20260905051503 | 60 | 304 | 8.0 | 18.0 | 0.02 | 0.02 | 0.02 | 70 | 1018.1 |
| 20260905051003 | 60 | 315 | 8.0 | 18.0 | 0.01 | 0.01 | 0.01 | 70 | 1018.3 |
| 20260905050503 | 60 | 321 | 5.0 | 12.0 | 0.01 | 0.01 | 0.01 | 68 | 1018.3 |
| 20260905050003 | 60 | 323 | 1.0 | 9.0 | 0.01 | 0.01 | 0.01 | 70 | 1018.2 |
| 20260905045716 | 61 | 298 | 2.0 | 11.0 | 0.00 | 0.00 | 0.00 | 71 | 1018.3 |
| 20260905045003 | 61 | 296 | 3.0 | 11.0 | 0.00 | 0.00 | 0.00 | 73 | 1018.1 |
| 20260905044718 | 61 | 298 | 2.0 | 11.0 | 0.00 | 0.00 | 0.00 | 73 | 1018.1 |
| 20260905044003 | 62 | 299 | 0.0 | 5.0 | 0.00 | 0.00 | 0.00 | 73 | 1018.1 |
| 20260905043503 | 62 | 292 | 0.0 | 6.0 | 0.00 | 0.00 | 0.00 | 73 | 1018.1 |
| 20260905043003 | 62 | 314 | 0.0 | 6.0 | 0.00 | 0.00 | 0.00 | 72 | 1017.9 |
| 20260905042503 | 62 | 341 | 0.0 | 3.0 | 0.00 | 0.00 | 0.00 | 72 | 1017.5 |
| 20260905042219 | 62 | 341 | 0.0 | 3.0 | 0.00 | 0.00 | 0.00 | 72 | 1017.4 |
| 20260905041503 | 62 | 309 | 1.0 | 9.0 | 0.00 | 0.00 | 0.00 | 73 | 1017.4 |
| 20260905041217 | 62 | 309 | 1.0 | 9.0 | 0.00 | 0.00 | 0.00 | 73 | 1017.3 |
| 20260905040718 | 62 | 305 | 1.0 | 7.0 | 0.00 | 0.00 | 0.00 | 73 | 1017.2 |
| 20260905040003 | 62 | 304 | 1.0 | 9.0 | 0.00 | 0.00 | 0.00 | 72 | 1018.2 |
| 20260905035503 | 62 | 313 | 1.0 | 7.0 | 0.00 | 0.00 | 0.00 | 72 | 1017.7 |
| 20260905035217 | 62 | 311 | 0.0 | 5.0 | 0.00 | 0.00 | 0.00 | 72 | 1017.5 |
| 20260905034503 | 63 | 317 | 0.0 | 2.0 | 0.00 | 0.00 | 0.00 | 72 | 1017.1 |
| 20260905034219 | 63 | 350 | 0.0 | 4.0 | 0.00 | 0.00 | 0.00 | 72 | 1016.9 |
| 20260905033503 | 63 | 340 | 0.0 | 4.0 | 0.00 | 0.00 | 0.00 | 72 | 1016.7 |
| 20260905033003 | 63 | 288 | 0.0 | 1.0 | 0.00 | 0.00 | 0.00 | 73 | 1017.5 |
| 20260905032503 | 63 | 305 | 1.0 | 9.0 | 0.00 | 0.00 | 0.00 | 72 | 1017.4 |
| 20260905032003 | 63 | 303 | 1.0 | 9.0 | 0.00 | 0.00 | 0.00 | 73 | 1016.9 |
| 20260905031503 | 63 | 309 | 1.0 | 11.0 | 0.00 | 0.00 | 0.00 | 73 | 1016.9 |
| 20260905031003 | 63 | 320 | 1.0 | 11.0 | 0.00 | 0.00 | 0.00 | 73 | 1016.9 |
| 20260905030504 | 64 | 319 | 2.0 | 13.0 | 0.00 | 0.00 | 0.00 | 73 | 1016.8 |
| 20260905030003 | 64 | 313 | 3.0 | 13.0 | 0.00 | 0.00 | 0.00 | 73 | 1017.0 |
| 20260905025503 | 64 | 315 | 3.0 | 11.0 | 0.00 | 0.00 | 0.00 | 73 | 1017.1 |
| 20260905025003 | 64 | 320 | 1.0 | 8.0 | 0.00 | 0.00 | 0.00 | 74 | 1017.0 |
| 20260905024503 | 64 | 348 | 0.0 | 6.0 | 0.00 | 0.00 | 0.00 | 74 | 1016.6 |
| 20260905024003 | 64 | 339 | 1.0 | 6.0 | 0.00 | 0.00 | 0.00 | 74 | 1016.9 |
| 20260905023503 | 64 | 332 | 1.0 | 9.0 | 0.00 | 0.00 | 0.00 | 74 | 1016.8 |
| 20260905023003 | 64 | 327 | 1.0 | 9.0 | 0.00 | 0.00 | 0.00 | 73 | 1016.8 |
| 20260905022503 | 64 | 315 | 0.0 | 5.0 | 0.00 | 0.00 | 0.00 | 73 | 1016.5 |
| 20260905022003 | 64 | 315 | 0.0 | 7.0 | 0.00 | 0.00 | 0.00 | 74 | 1016.3 |
| 20260905021503 | 64 | 318 | 0.0 | 7.0 | 0.00 | 0.00 | 0.00 | 73 | 1016.1 |
| 20260905021003 | 64 | 317 | 0.0 | 7.0 | 0.00 | 0.00 | 0.00 | 73 | 1016.1 |
| 20260905020503 | 65 | 314 | 0.0 | 7.0 | 0.00 | 0.00 | 0.00 | 73 | 1016.2 |
| 20260905020003 | 65 | 311 | 0.0 | 7.0 | 0.00 | 0.00 | 0.00 | 73 | 1016.2 |
| 20260905015503 | 65 | 313 | 1.0 | 9.0 | 0.00 | 0.00 | 0.00 | 72 | 1015.9 |
| 20260905015003 | 65 | 312 | 1.0 | 9.0 | 0.00 | 0.00 | 0.00 | 72 | 1016.2 |
| 20260905014503 | 65 | 300 | 2.0 | 14.0 | 0.00 | 0.00 | 0.00 | 72 | 1016.1 |
| 20260905014003 | 65 | 299 | 3.0 | 14.0 | 0.00 | 0.00 | 0.00 | 72 | 1016.2 |
| 20260905013719 | 65 | 302 | 4.0 | 14.0 | 0.00 | 0.00 | 0.00 | 72 | 1016.1 |
| 20260905013003 | 65 | 313 | 6.0 | 13.0 | 0.00 | 0.00 | 0.00 | 72 | 1016.1 |
| 20260905012503 | 65 | 315 | 6.0 | 13.0 | 0.00 | 0.00 | 0.00 | 72 | 1015.8 |
| 20260905012003 | 66 | 308 | 5.0 | 15.0 | 0.00 | 0.00 | 0.00 | 72 | 1015.8 |
| 20260905011503 | 66 | 303 | 7.0 | 15.0 | 0.00 | 0.00 | 0.00 | 72 | 1015.8 |
| 20260905011003 | 66 | 308 | 6.0 | 14.0 | 0.00 | 0.00 | 0.00 | 71 | 1016.1 |
| 20260905010503 | 66 | 314 | 5.0 | 13.0 | 0.00 | 0.00 | 0.00 | 71 | 1015.9 |
| 20260905010003 | 67 | 311 | 6.0 | 14.0 | 0.00 | 0.00 | 0.00 | 69 | 1015.9 |
| 20260905005503 | 67 | 311 | 8.0 | 14.0 | 0.00 | 0.00 | 0.00 | 68 | 1015.8 |
| 20260905005007 | 68 | 315 | 9.0 | 20.0 | 0.00 | 0.00 | 0.00 | 66 | 1015.6 |
| 20260905004503 | 68 | 316 | 8.0 | 20.0 | 0.00 | 0.00 | 0.00 | 66 | 1015.4 |
| 20260905004003 | 68 | 316 | 7.0 | 19.0 | 0.00 | 0.00 | 0.00 | 65 | 1015.3 |
| 20260905003504 | 69 | 318 | 10.0 | 18.0 | 0.00 | 0.00 | 0.00 | 65 | 1014.9 |
| 20260905003004 | 69 | 317 | 10.0 | 18.0 | 0.00 | 0.00 | 0.00 | 65 | 1015.2 |
| 20260905002717 | 69 | 317 | 9.0 | 18.0 | 0.00 | 0.00 | 0.00 | 67 | 1015.3 |
| 20260905002217 | 70 | 312 | 10.0 | 18.0 | 0.00 | 0.00 | 0.00 | 68 | 1015.2 |
| 20260905001503 | 70 | 306 | 10.0 | 19.0 | 0.00 | 0.00 | 0.00 | 68 | 1015.0 |
| 20260905001003 | 70 | 306 | 10.0 | 19.0 | 0.00 | 0.00 | 0.00 | 68 | 1014.0 |
| 20260905000503 | 71 | 299 | 10.0 | 16.0 | 0.00 | 0.00 | 0.00 | 67 | 1013.8 |
| 20260905000219 | 72 | 299 | 9.0 | 16.0 | 0.00 | 0.00 | 0.00 | 66 | 1013.8 |
| 20260904235503 | 72 | 309 | 8.0 | 16.0 | 0.00 | 0.00 | 0.00 | 64 | 1013.4 |
| 20260904235219 | 72 | 311 | 8.0 | 17.0 | 0.00 | 0.00 | 0.00 | 64 | 1013.3 |
| 20260904234503 | 72 | 313 | 6.0 | 17.0 | 0.00 | 0.00 | 0.00 | 64 | 1013.1 |
| 20260904234003 | 71 | 308 | 3.0 | 12.0 | 0.00 | 0.00 | 0.00 | 63 | 1013.1 |
| 20260904233504 | 71 | 300 | 0.0 | 5.0 | 0.00 | 0.00 | 0.00 | 62 | 1013.0 |
| 20260904233003 | 72 | 0 | 0.0 | 0.0 | 0.00 | 0.00 | 0.00 | 61 | 1012.6 |
| 20260904232503 | 72 | 265 | 0.0 | 1.0 | 0.00 | 0.00 | 0.00 | 60 | 1012.5 |
| 20260904232217 | 72 | 265 | 0.0 | 1.0 | 0.00 | 0.00 | 0.00 | 60 | 1012.5 |
| 20260904231503 | 72 | 0 | 0.0 | 0.0 | 0.00 | 0.00 | 0.00 | 59 | 1012.6 |
| 20260904231003 | 73 | 262 | 0.0 | 1.0 | 0.00 | 0.00 | 0.00 | 59 | 1012.5 |
| 20260904230716 | 73 | 262 | 0.0 | 1.0 | 0.00 | 0.00 | 0.00 | 59 | 1012.6 |
| 20260904230003 | 73 | 0 | 0.0 | 0.0 | 0.00 | 0.00 | 0.00 | 59 | 1012.5 |
| 20260904225503 | 73 | 0 | 0.0 | 0.0 | 0.00 | 0.00 | 0.00 | 58 | 1012.4 |
| 20260904225003 | 73 | 0 | 0.0 | 0.0 | 0.00 | 0.00 | 0.00 | 57 | 1012.4 |
| 20260904224504 | 74 | 0 | 0.0 | 0.0 | 0.00 | 0.00 | 0.00 | 57 | 1012.4 |
| 20260904224003 | 74 | 0 | 0.0 | 0.0 | 0.00 | 0.00 | 0.00 | 56 | 1012.4 |
| 20260904223503 | 74 | 99 | 0.0 | 1.0 | 0.00 | 0.00 | 0.00 | 56 | 1012.4 |
| 20260904223003 | 74 | 83 | 0.0 | 3.0 | 0.00 | 0.00 | 0.00 | 56 | 1012.4 |
| 20260904222503 | 74 | 81 | 0.0 | 3.0 | 0.00 | 0.00 | 0.00 | 56 | 1012.3 |
| 20260904222003 | 75 | 227 | 0.0 | 2.0 | 0.00 | 0.00 | 0.00 | 55 | 1012.3 |
| 20260904221503 | 75 | 212 | 0.0 | 2.0 | 0.00 | 0.00 | 0.00 | 55 | 1012.3 |
| 20260904221219 | 75 | 202 | 0.0 | 2.0 | 0.00 | 0.00 | 0.00 | 55 | 1012.2 |
| 20260904220716 | 75 | 0 | 0.0 | 0.0 | 0.00 | 0.00 | 0.00 | 55 | 1012.2 |
| 20260904220004 | 75 | 0 | 0.0 | 0.0 | 0.00 | 0.00 | 0.00 | 55 | 1012.2 |
| 20260904215503 | 75 | 0 | 0.0 | 0.0 | 0.00 | 0.00 | 0.00 | 55 | 1012.2 |
| 20260904215003 | 75 | 0 | 0.0 | 0.0 | 0.00 | 0.00 | 0.00 | 55 | 1012.3 |
| 20260904214503 | 75 | 0 | 0.0 | 0.0 | 0.00 | 0.00 | 0.00 | 55 | 1012.2 |
| 20260904214003 | 75 | 0 | 0.0 | 0.0 | 0.00 | 0.00 | 0.00 | 55 | 1012.1 |
| 20260904213503 | 75 | 114 | 0.0 | 3.0 | 0.00 | 0.00 | 0.00 | 55 | 1012.1 |
| 20260904213003 | 75 | 116 | 0.0 | 3.0 | 0.00 | 0.00 | 0.00 | 55 | 1012.2 |
| 20260904212503 | 75 | 126 | 0.0 | 3.0 | 0.00 | 0.00 | 0.00 | 55 | 1012.2 |
| 20260904212221 | 75 | 126 | 0.0 | 3.0 | 0.00 | 0.00 | 0.00 | 55 | 1012.2 |
| 20260904211503 | 75 | 136 | 0.0 | 1.0 | 0.00 | 0.00 | 0.00 | 55 | 1012.2 |
| 20260904211003 | 75 | 136 | 0.0 | 1.0 | 0.00 | 0.00 | 0.00 | 55 | 1012.2 |
| 20260904210503 | 75 | 0 | 0.0 | 0.0 | 0.00 | 0.00 | 0.00 | 55 | 1012.2 |
| 20260904210003 | 75 | 0 | 0.0 | 0.0 | 0.00 | 0.00 | 0.00 | 55 | 1012.2 |
| 20260904205503 | 75 | 114 | 0.0 | 4.0 | 0.00 | 0.00 | 0.00 | 55 | 1012.3 |
| 20260904205218 | 75 | 114 | 0.0 | 4.0 | 0.00 | 0.00 | 0.00 | 55 | 1012.3 |
| 20260904204503 | 75 | 118 | 0.0 | 1.0 | 0.00 | 0.00 | 0.00 | 54 | 1012.4 |
| 20260904204003 | 75 | 118 | 0.0 | 1.0 | 0.00 | 0.00 | 0.00 | 54 | 1012.4 |
| 20260904203503 | 76 | 0 | 0.0 | 0.0 | 0.00 | 0.00 | 0.00 | 54 | 1012.4 |
| 20260904203003 | 76 | 102 | 0.0 | 1.0 | 0.00 | 0.00 | 0.00 | 54 | 1012.4 |
| 20260904202719 | 76 | 133 | 0.0 | 2.0 | 0.00 | 0.00 | 0.00 | 54 | 1012.4 |
| 20260904202003 | 76 | 130 | 0.0 | 2.0 | 0.00 | 0.00 | 0.00 | 54 | 1012.5 |
| 20260904201503 | 76 | 128 | 0.0 | 1.0 | 0.00 | 0.00 | 0.00 | 53 | 1012.5 |
| 20260904201003 | 76 | 128 | 0.0 | 1.0 | 0.00 | 0.00 | 0.00 | 53 | 1012.5 |
| 20260904200719 | 77 | 128 | 0.0 | 1.0 | 0.00 | 0.00 | 0.00 | 53 | 1012.5 |
| 20260904200216 | 77 | 187 | 0.0 | 1.0 | 0.00 | 0.00 | 0.00 | 52 | 1012.6 |
| 20260904195503 | 77 | 187 | 0.0 | 1.0 | 0.00 | 0.00 | 0.00 | 52 | 1012.6 |
| 20260904195003 | 77 | 201 | 0.0 | 5.0 | 0.00 | 0.00 | 0.00 | 51 | 1012.6 |
| 20260904194503 | 78 | 198 | 1.0 | 7.0 | 0.00 | 0.00 | 0.00 | 51 | 1012.6 |
| 20260904194216 | 78 | 197 | 0.0 | 7.0 | 0.00 | 0.00 | 0.00 | 51 | 1012.6 |
| 20260904193503 | 77 | 182 | 0.0 | 6.0 | 0.00 | 0.00 | 0.00 | 52 | 1012.6 |
| 20260904193003 | 77 | 171 | 1.0 | 6.0 | 0.00 | 0.00 | 0.00 | 52 | 1012.6 |
| 20260904192503 | 76 | 149 | 1.0 | 5.0 | 0.00 | 0.00 | 0.00 | 53 | 1012.7 |
| 20260904192003 | 76 | 120 | 0.0 | 3.0 | 0.00 | 0.00 | 0.00 | 55 | 1012.7 |
| 20260904191503 | 76 | 0 | 0.0 | 0.0 | 0.00 | 0.00 | 0.00 | 55 | 1012.7 |
| 20260904191003 | 75 | 0 | 0.0 | 0.0 | 0.00 | 0.00 | 0.00 | 55 | 1012.7 |
| 20260904190503 | 75 | 120 | 1.0 | 4.0 | 0.00 | 0.00 | 0.00 | 56 | 1012.9 |
| 20260904190003 | 76 | 121 | 1.0 | 4.0 | 0.00 | 0.00 | 0.00 | 56 | 1012.9 |
| 20260904185503 | 76 | 143 | 0.0 | 3.0 | 0.00 | 0.00 | 0.00 | 55 | 1012.8 |
| 20260904185218 | 76 | 143 | 0.0 | 3.0 | 0.00 | 0.00 | 0.00 | 55 | 1012.9 |
| 20260904184718 | 76 | 125 | 0.0 | 3.0 | 0.00 | 0.00 | 0.00 | 54 | 1012.9 |
| 20260904184003 | 76 | 114 | 1.0 | 3.0 | 0.00 | 0.00 | 0.00 | 54 | 1013.0 |
| 20260904183503 | 76 | 112 | 0.0 | 3.0 | 0.00 | 0.00 | 0.00 | 53 | 1013.1 |
| 20260904183217 | 77 | 124 | 0.0 | 3.0 | 0.00 | 0.00 | 0.00 | 53 | 1013.0 |
| 20260904182718 | 77 | 276 | 0.0 | 2.0 | 0.00 | 0.00 | 0.00 | 52 | 1013.1 |
| 20260904182003 | 78 | 285 | 0.0 | 1.0 | 0.00 | 0.00 | 0.00 | 51 | 1013.1 |
| 20260904181503 | 78 | 285 | 0.0 | 1.0 | 0.00 | 0.00 | 0.00 | 51 | 1013.1 |
| 20260904181003 | 78 | 0 | 0.0 | 0.0 | 0.00 | 0.00 | 0.00 | 51 | 1013.0 |
| 20260904180503 | 78 | 0 | 0.0 | 0.0 | 0.00 | 0.00 | 0.00 | 50 | 1013.0 |
| 20260904180003 | 79 | 0 | 0.0 | 0.0 | 0.00 | 0.00 | 0.00 | 50 | 1012.9 |
| 20260904175503 | 79 | 0 | 0.0 | 0.0 | 0.00 | 0.00 | 0.00 | 50 | 1012.9 |
| 20260904175003 | 79 | 0 | 0.0 | 0.0 | 0.00 | 0.00 | 0.00 | 49 | 1012.8 |
| 20260904174503 | 79 | 0 | 0.0 | 0.0 | 0.00 | 0.00 | 0.00 | 49 | 1012.7 |
| 20260904174003 | 80 | 0 | 0.0 | 0.0 | 0.00 | 0.00 | 0.00 | 49 | 1012.7 |
| 20260904173503 | 80 | 0 | 0.0 | 0.0 | 0.00 | 0.00 | 0.00 | 48 | 1012.6 |
| 20260904173003 | 80 | 241 | 1.0 | 9.0 | 0.00 | 0.00 | 0.00 | 48 | 1012.5 |
| 20260904172503 | 81 | 223 | 1.0 | 9.0 | 0.00 | 0.00 | 0.00 | 47 | 1012.5 |
| 20260904172003 | 81 | 206 | 1.0 | 7.0 | 0.00 | 0.00 | 0.00 | 47 | 1012.4 |
| 20260904171716 | 81 | 211 | 0.0 | 7.0 | 0.00 | 0.00 | 0.00 | 47 | 1012.4 |
| 20260904171003 | 82 | 232 | 0.0 | 2.0 | 0.00 | 0.00 | 0.00 | 46 | 1012.3 |
| 20260904170503 | 82 | 204 | 0.0 | 10.0 | 0.00 | 0.00 | 0.00 | 45 | 1012.3 |
| 20260904170003 | 82 | 198 | 0.0 | 10.0 | 0.00 | 0.00 | 0.00 | 45 | 1012.3 |
| 20260904165503 | 83 | 219 | 1.0 | 7.0 | 0.00 | 0.00 | 0.00 | 45 | 1012.2 |
| 20260904165217 | 83 | 221 | 2.0 | 7.0 | 0.00 | 0.00 | 0.00 | 44 | 1012.2 |
| 20260904164503 | 83 | 227 | 2.0 | 6.0 | 0.00 | 0.00 | 0.00 | 44 | 1012.3 |
| 20260904164003 | 83 | 228 | 2.0 | 8.0 | 0.00 | 0.00 | 0.00 | 44 | 1012.3 |
| 20260904163504 | 83 | 239 | 3.0 | 12.0 | 0.00 | 0.00 | 0.00 | 44 | 1012.3 |
| 20260904163003 | 83 | 233 | 3.0 | 12.0 | 0.00 | 0.00 | 0.00 | 44 | 1012.3 |
| 20260904162503 | 83 | 206 | 2.0 | 9.0 | 0.00 | 0.00 | 0.00 | 44 | 1012.4 |
| 20260904162003 | 83 | 203 | 2.0 | 9.0 | 0.00 | 0.00 | 0.00 | 44 | 1012.4 |
| 20260904161503 | 83 | 225 | 2.0 | 10.0 | 0.00 | 0.00 | 0.00 | 44 | 1012.4 |
| 20260904161003 | 82 | 220 | 3.0 | 13.0 | 0.00 | 0.00 | 0.00 | 45 | 1012.5 |